Location: Aufkirchen
(47.9603°N, 11.3653°E)
Time: 06:13:30
(UTC+01:00)

Vanguard 1 - Visible Passes

Search period start: 27 November 2020 00:00
Search period end: 07 December 2020 00:00
Orbit: 650 x 3833 km, 34.2° (Epoch: 26 November)

Date Brightness Start Highest point End Pass type
(mag) Time Alt. Az. Time Alt. Az. Time Alt. Az.
27 Nov 12.4 04:23:59 10° S 04:27:18 14° SE 04:31:24 10° ESE visible
27 Nov 12.4 06:39:16 10° SW 06:46:13 36° SSE 06:57:59 10° ESE visible
28 Nov 12.2 04:43:09 10° S 04:47:29 18° SE 04:53:25 10° ESE visible
28 Nov 12.4 06:59:39 10° SW 07:06:49 37° S 07:19:05 10° ESE visible
29 Nov 12.1 05:03:05 11° SSW 05:07:47 23° SSE 05:14:55 10° ESE visible
30 Nov 12.0 05:23:06 11° SSW 05:28:11 27° SSE 05:36:12 10° ESE visible
01 Dec 12.0 05:43:11 10° SW 05:48:40 29° SSE 05:57:20 10° ESE visible
02 Dec 12.2 03:50:18 14° SSE 03:50:18 14° SSE 03:53:39 10° ESE visible
02 Dec 12.0 06:03:35 10° SW 06:09:15 31° S 06:18:20 10° ESE visible
03 Dec 11.9 04:10:14 18° SSE 04:10:37 18° SSE 04:15:15 10° ESE visible
03 Dec 12.0 06:24:05 10° SW 06:29:53 31° S 06:39:13 10° ESE visible
04 Dec 11.6 04:30:08 20° S 04:31:01 21° SSE 04:36:30 10° ESE visible
04 Dec 12.1 06:44:42 10° WSW 06:50:34 30° S 06:59:57 10° SE visible
05 Dec 11.5 04:50:02 21° S 04:51:31 24° SSE 04:57:33 10° ESE visible
05 Dec 12.1 07:05:25 10° WSW 07:11:17 28° S 07:20:29 10° SE visible
06 Dec 11.4 05:09:54 20° SSW 05:12:05 25° S 05:18:27 10° ESE visible
